Regional Weather Roundup
Issued by NWS

Home | Current Version | Previous Version | Text Only | Print | Product List | Glossary Off
Versions: 1 2 3 4 5 6 7 8 9 10 11 12 13 14 15 16 17 18 19 20 21 22 23 24 25 26 27 28 29 30 31 32 33 34 35 36 37 38 39 40 41 42 43 44 45 46 47 48 49 50

926
ASUS43 KFSD 212002
RWRSD

WEATHER ROUNDUP FOR SOUTH DAKOTA
NATIONAL WEATHER SERVICE SIOUX FALLS SD
200 PM CST TUE NOV 21 2017

NOTE: "FAIR" INDICATES FEW OR NO CLOUDS BELOW 12,000 FEET WITH NO
SIGNIFICANT WEATHER AND/OR OBSTRUCTIONS TO VISIBILITY.


SDZ001>005-009-010-012>017-212100-
NORTHWEST AND NORTH CENTRAL SOUTH DAKOTA

CITY           SKY/WX    TMP DP  RH WIND       PRES   REMARKS
BUFFALO          N/A     29   9  43 NW16      30.23F WCI  17
FAITH            N/A     24   2  38 W14       30.33F WCI  12
MOBRIDGE       SUNNY     23   5  46 NW9       30.33S WCI  13
$$

SDZ012>016-024>037-041>051-057-063-072>074-212100-
SOUTHWEST AND SOUTH CENTRAL SOUTH DAKOTA

CITY           SKY/WX    TMP DP  RH WIND       PRES   REMARKS
RAPID CTY ARPT SUNNY     33  20  58 NW5       30.31F WCI  29
PIERRE         SUNNY     24   8  50 NW13      30.36F WCI  12
CUSTER         CLOUDY    32  19  58 SW13G21   30.21R WCI  22
ELLSWORTH AFB  SUNNY     31  21  66 CALM      30.31R
PHILIP         SUNNY     27  10  49 NW14      30.36F WCI  16
PINE RIDGE     MOSUNNY   36  25  64 SW5       30.31S
SPEARFISH      FAIR      32  23  69 NW8G14    30.28R WCI  25
WINNER         FAIR      23  12  62 NW14      30.38S WCI  11
$$

SDZ004>011-016>023-039-040-212100-
NORTHEAST SOUTH DAKOTA

CITY           SKY/WX    TMP DP  RH WIND       PRES   REMARKS
ABERDEEN       SUNNY     25   7  46 N12       30.36S WCI  14
WATERTOWN      SUNNY     23   7  50 NW17      30.28R WCI   9
BROOKINGS      SUNNY     24   9  52 N18       30.29R WCI  10
SISSETON         N/A     25   8  48 NW20G26   30.30S WCI  11
$$

SDZ017-020-022-023-036>040-048>070-212100-
SOUTHEAST SOUTH DAKOTA

CITY           SKY/WX    TMP DP  RH WIND       PRES   REMARKS
SIOUX FALLS    SUNNY     29  11  47 NW18G26   30.29R WCI  16
HURON          SUNNY     26   6  42 N16       30.35S WCI  14
CHAMBERLAIN    SUNNY     27  10  48 NW14      30.38S WCI  15
MITCHELL       SUNNY     26   8  46 NW15G24   30.37S WCI  14
YANKTON        SUNNY     26  10  50 NW25      30.34R WCI  11
$$

ABBREVIATIONS USED IN REMARKS
   TC - TEMPERATURE IN CELSIUS
  WCI - WIND CHILL INDEX
   HX - HEAT INDEX
  VSB - VISIBILITY





USA.gov is the U.S. government's official web portal to all federal, state and local government web resources and services.